Погода в Сагарчине

Россия / Оренбургская область     50°54′11″N   55°54′29″E
темп.,
°C
ветер,
м/с
пор.,
м/с
влажн.,
%
обл.,
%
осадки,
мм/ч
давл.,
гПа
погр.,
м
28 октября, чт
чт2823:00+1юз5125594 0.0 1027307
02:000юз61357100 0.0 1027324
05:000юз6146110 0.0 1026342
08:00−1юз7146454 0.0 1025343
11:00+3юз9145520 0.0 1024668
14:00+5зюз101348100 0.0 1023955
17:00+5зюз812557 0.0 1022930
20:00+3юз51370100 0.0 1022406
29 октября, пт
пт2923:00+3юз51277100 0.0 1022328
02:00+3юз51278100 0.0 1021351
05:00+2юз51178100 0.0 1021338
08:00+3юз51082100 0.0 1022312
11:00+5зюз687283 0.0 1023506
14:00+8зюз565990 0.0 10231003
17:00+8зсз455582 0.0 10251138
20:00+5ссз22687 0.0 102713
30 октября, сб
сб3023:00+4с227538 0.0 102813
02:00+3ююв007852 0.0 102910
05:00+2ююз117839 0.0 103010
08:00+4юз2272100 0.0 103123
11:00+6юз3563100 0.0 1031226
14:00+9зюз685194 0.0 10301007
17:00+8зюз61055100 0.0 1029722
20:00+5зюз51272100 0.0 1030306
31 октября, вс
вс3123:00+5зюз61369100 0.0 1029387
02:00+4зюз61373100 0.0 1029332
05:00+4з613795 0.0 1029305
08:00+2зюз49905 0.0 1029189
11:00+6з567943 0.0 1030313
14:00+10з466936 0.0 1030639
17:00+10з467248 0.0 1029299
20:00+7з338648 0.0 103044
1 ноября, пн
пн123:00+6з339057 0.0 103030
02:00+6з359389 0.0 103089
05:00+5з379585 0.0 1029115
08:00+4з49959 0.0 1029154
11:00+8з61070100 0.0 1029320
14:00+12з695275 0.0 1027583
17:00+11з5956100 0.0 1027354
20:00+8з4107292 0.0 1027197